Regional Weather Roundup
Issued by NWS Lake Charles, LA

Home | Current Version | Previous Version | Text Only | Print | Product List | Glossary On
Versions: 1 2 3 4 5 6 7 8 9 10 11 12 13 14 15 16 17 18 19 20 21 22 23 24 25 26 27 28 29 30 31 32 33 34 35 36 37 38 39 40 41 42 43 44 45 46 47 48 49 50
000
ASUS44 KLCH 230010
RWRLCH
RWRLCH
REGIONAL WEATHER ROUNDUP
NATIONAL WEATHER SERVICE LAKE CHARLES LA
700 PM CDT FRI MAY 22 2015

Note: "fair" indicates few or no clouds below 12,000 feet with no
significant weather and/or obstructions to visibility.


ACROSS SOUTHEAST TEXAS

CITY           SKY/WX    TMP DP  RH WIND       PRES   REMARKS
BEAUMONT       LGT RAIN  78  70  76 E9        30.10F
BEAUMONT CITY  CLOUDY    77  70  80 SE3       30.11F
ORANGE         CLOUDY    78  68  72 E3        30.13S
JASPER         SUNNY     81  70  70 E5        30.14S
$$

ACROSS CENTRAL LOUISIANA

CITY           SKY/WX    TMP DP  RH WIND       PRES   REMARKS
LEESVILLE      PTSUNNY   76  67  74 E7        30.13S
FULLERTON      MOCLDY    76  65  68 CALM      30.12S
ALEXANDRIA INT PTSUNNY   75  65  70 SE9       30.13F
ESLER FIELD    CLOUDY    76  65  68 E3        30.15F
DERIDDER       MOCLDY    78  68  69 E6        30.14F
OAKDALE        CLOUDY    73  67  81 CALM      30.15S
OPELOUSAS      MOCLDY    75  68  79 N5        30.14S
$$

ACROSS SOUTHWEST AND SOUTH CENTRAL LOUISIANA

CITY           SKY/WX    TMP DP  RH WIND       PRES   REMARKS
SULPHUR        CLOUDY    78  70  76 E7        30.13S
LAKE CHARLES   CLOUDY    78  69  73 E7        30.12F
CHENNAULT INT  NOT AVBL
CAMERON PHI    MOCLDY    79  70  73 SE8       30.14F
DEQUINCY         N/A     77  70  78 E6        30.13S
JENNINGS       CLOUDY    76  69  79 NE6       30.13S
LAFAYETTE      SUNNY     80  69  69 N5        30.12F
NEW IBERIA     MOSUNNY   82  69  64 NE7       30.13S
ABBEVILLE        N/A     78  71  80 S3        30.13S
PATTERSON      PTSUNNY   81  70  69 S8        30.14R
SALT POINT       N/A     81  72  74 SE6       30.11R
$$

SELECTED SITES ACROSS THE REGION

CITY           SKY/WX    TMP DP  RH WIND       PRES   REMARKS
HOUSTON BUSH   PTSUNNY   76  69  79 E12       30.09F
HOUSTON HOBBY  CLOUDY    78  71  79 E12       30.07F
GALVESTON      CLOUDY    79  75  87 E15       30.08F
COLLEGE STAT   CLOUDY    78  69  73 SE10      30.07F
CONROE         PTSUNNY   73  67  81 E5        30.11F
HUNTSVILLE     CLOUDY    77  68  73 SE3       30.10S
LUFKIN         CLOUDY    79  67  66 SE7       30.11S
SHREVEPORT     PTSUNNY   76  62  62 SE6       30.12F
MONROE         SUNNY     74  57  55 E6        30.17F
NATCHEZ MS     CLOUDY    75  64  69 NE5       30.16F
BATON ROUGE    PTSUNNY   79  68  69 NE5       30.13S
N.O. INTL ARPT MOCLDY    81  65  58 E5        30.13S
SLIDELL        CLEAR     78  69  73 SW3       30.13S
$$

MARINE REPORTS

STATION/POSITION TIME  TEMP    WIND        PRES    VSBY  WAVE
                       AIR SEA DIR/SP/G                  HT/PER
                 (UTC) (F)     (DEG/KT/KT) (MB)    (MI)  (FT/S)
BUOY 30 S HIGH I 2350   79 80  100/ 16/ 17 1017.9F         3/ 4
SEA RIM ST PARK  0000   77      90/ 10/ 13 1019.6F
PORT ARTHUR      2300      78  120/  5/  8 1020.0R
SABINE PASS N    2300   77 80  110/ 11/ 14 1019.9F
TEXAS POINT      NOT AVBL
CALCASIEU PASS   2300   78 82  130/ 10/ 12   N/A
LK CHARLES BEACH 2300   78 78              1020.5R
MARSH ISLAND     2300   77     110/  8/ 10   N/A           0
FRESH WATER LOCK 2300   79 81  100/  7/ 10 1020.0S
AMERADA PASS     2300   80 78  110/  5/  7 1019.8S
$$


USA.gov is the U.S. government's official web portal to all federal, state and local government web resources and services.